This is the latest recevied weather packets stored in our database for station/object DB2YI-13. If no packets are shown the sender has not sent any weather packets the latest 1 day(s).
| Time | Temp. | Humidity | Pressure | Rain* | Wind** | Luminosity | Snow |
|---|---|---|---|---|---|---|---|
| 1777984201 | 18.89° C | 67% | - | 0 mm | 0 m/s | - | - |
| 1777983603 | 18.89° C | 67% | - | 0 mm | 0 m/s | - | - |
| 1777983015 | 18.89° C | 67% | - | 0 mm | 0 m/s | - | - |
| 1777982401 | 18.89° C | 67% | - | 0 mm | 0 m/s | - | - |
| 1777981803 | 18.89° C | 68% | - | 0 mm | 0.45 m/s, 0° | - | - |
| 1777981203 | 18.89° C | 67% | - | 0 mm | 0 m/s | - | - |
| 1777980601 | 19.44° C | 66% | - | 0 mm | 0 m/s | - | - |
| 1777980001 | 19.44° C | 65% | - | 0 mm | 0 m/s | - | - |
| 1777979401 | 18.89° C | 65% | - | 0 mm | 0 m/s | - | - |
| 1777978801 | 19.44° C | 65% | - | 0 mm | 0 m/s | - | - |
| 1777978202 | 19.44° C | 65% | - | 0 mm | 0 m/s | - | - |
| 1777977601 | 19.44° C | 65% | - | 0 mm | 0 m/s | - | - |
| 1777977002 | 19.44° C | 65% | - | 0 mm | 0 m/s | - | - |
| 1777976401 | 19.44° C | 67% | - | 0 mm | 0 m/s | - | - |
| 1777975801 | 18.89° C | 69% | - | 0 mm | 0 m/s | - | - |
| 1777975201 | 18.33° C | 69% | - | 0 mm | 0 m/s | - | - |
| 1777974602 | 18.89° C | 73% | - | 0 mm | 0 m/s | - | - |
| 1777974001 | 18.89° C | 74% | - | 0 mm | 0 m/s | - | - |
| 1777973403 | 17.78° C | 77% | - | 0 mm | 0 m/s | - | - |
| 1777972801 | 17.78° C | 77% | - | 0 mm | 0 m/s | - | - |
| 1777972201 | 17.78° C | 78% | - | 0 mm | 0 m/s | - | - |
| 1777971001 | 17.22° C | 80% | - | 0 mm | 0 m/s | - | - |
| 1777970401 | 16.67° C | 83% | - | 0 mm | 0 m/s | - | - |
| 1777969802 | 16.67° C | 84% | - | 0 mm | 0 m/s | - | - |
| 1777969201 | 16.11° C | 85% | - | 0 mm | 0 m/s | - | - |
* Rain latest hour (hover to see other rain measurements)
** Current wind speed in m/s (hover to see current wind gust speed)